Location: Flynn Junction
(40.1314°N, 99.5162°W)
Time: 21:40:46
(UTC+00:00)

Cosmos 1140 Rocket - Pass Details

Date: 29 October 2020
Orbit: 744 x 767 km, 74.1° (Epoch: 01 December)

Event Time Altitude Azimuth Distance (km) Brightness Sun altitude
Rises 12:26:31 0° 209° (SSW) 3,175 6.5 -7.9°
Reaches altitude 10° 12:28:55 10° 213° (SSW) 2,254 5.7 -7.4°
Maximum altitude 12:33:55 56° 292° (WNW) 884 3.5 -6.5°
Drops below altitude 10° 12:38:58 10° 11° (N) 2,266 5.9 -5.6°
Sets 12:41:23 0° 15° (NNE) 3,194 6.7 -5.1°
